Weather History for LEMD - February, 2013

Change the Weather History Date:

Friday, February 22, 2013

  Actual Average Record
Temperature  
Mean Temperature 49 °F -  
Max Temperature 54 °F 58 °F 68 °F (1999)
Min Temperature 42 °F 37 °F 21 °F (2012)
Degree Days  
Heating Degree Days 16    
Moisture  
Dew Point 43 °F    
Average Humidity 82    
Maximum Humidity 100    
Minimum Humidity 53    
Precipitation  
Precipitation 0.08 in 0.04 in - ()
Sea Level Pressure  
Sea Level Pressure 29.63 in    
Wind  
Wind Speed 9 mph ()    
Max Wind Speed 18 mph    
Max Gust Speed 31 mph    
Visibility 6.5 miles    
Events Rain    
Averages and records for this station are not official NWS values.
T = Trace of Precipitation, MM = Missing Value Source: Averaged Metar Reports

Daily Weather History Graph

Daily Weather History Graph

Search for Another Location

Airport or City:

Trip Planner

Search our weather history database for the weather conditions in past years. The results will help you decide how hot, cold, wet, or windy it might be!

Date:

Astronomy

Feb. 22, 2013 Rise Set
Actual Time 7:58 AM CET 6:57 PM CET
Civil Twilight 7:30 AM CET 7:25 PM CET
Nautical Twilight 6:58 AM CET 7:57 PM CET
Astronomical Twilight 6:27 AM CET 8:28 PM CET
Moon 3:55 PM CET (2/22) 5:34 AM CET (2/22)
Length of Visible Light 11h 54m
Length of Day
10h 59m
Waxing Gibbous, 88% of the Moon is Illuminated
Feb 22
Waxing Gibbous
Feb 25
Full
Mar 4
Last Quarter
Mar 11
New
Mar 19
First Quarter

Hourly Weather History & Observations

Time (CET) Temp. Windchill Dew Point Humidity Pressure Visibility Wind Dir Wind Speed Gust Speed Precip Events Conditions
12:00 AM 46.4 °F 44.3 °F 46.4 °F 100% 29.74 in 6.2 mi SSW 4.6 mph - N/A   Mostly Cloudy
12:30 AM 48.2 °F - 46.4 °F 93% 29.74 in 6.2 mi SSW 4.6 mph - N/A Rain Light Rain
1:00 AM 47 °F - 44 °F 84% 29.75 in 10 mi South 6.9 mph - - Rain Light Rain
1:00 AM 48.2 °F - 46.4 °F 93% 29.71 in 6.2 mi SSW 5.8 mph - N/A   Mostly Cloudy
1:30 AM 48.2 °F - 46.4 °F 93% 29.71 in 6.2 mi SSW 6.9 mph - N/A   Light Drizzle
2:00 AM 48.2 °F - 46.4 °F 93% 29.68 in 6.2 mi SSW 6.9 mph - N/A   Scattered Clouds
2:30 AM 48.2 °F - 46.4 °F 93% 29.68 in 6.2 mi SSW 8.1 mph - N/A   Mostly Cloudy
3:00 AM 48.2 °F - 46.4 °F 93% 29.65 in 6.2 mi WSW 13.8 mph - N/A   Mostly Cloudy
3:30 AM 48.2 °F - 44.6 °F 87% 29.65 in 6.2 mi WSW 13.8 mph - N/A   Mostly Cloudy
4:00 AM 48.2 °F - 44.6 °F 87% 29.65 in 6.2 mi WSW 13.8 mph - N/A   Mostly Cloudy
4:30 AM 48.2 °F - 44.6 °F 87% 29.65 in 6.2 mi WSW 11.5 mph - N/A   Mostly Cloudy
5:00 AM 48.2 °F - 42.8 °F 82% 29.65 in 6.2 mi WSW 6.9 mph - N/A   Scattered Clouds
5:30 AM 46.4 °F 44.3 °F 42.8 °F 87% 29.65 in 6.2 mi West 4.6 mph - N/A   Mostly Cloudy
6:00 AM 46.4 °F 41.9 °F 41.0 °F 81% 29.65 in 6.2 mi WSW 9.2 mph - N/A   Mostly Cloudy
6:30 AM 46.4 °F 44.3 °F 41.0 °F 81% 29.68 in 6.2 mi SW 4.6 mph - N/A   Mostly Cloudy
7:00 AM 45 °F - 40 °F 75% 29.72 in 19 mi SW 6.9 mph - -   Mostly Cloudy
7:00 AM 46.4 °F 42.9 °F 42.8 °F 87% 29.68 in 6.2 mi SW 6.9 mph - N/A   Mostly Cloudy
7:30 AM 46.4 °F 40.7 °F 42.8 °F 87% 29.68 in 6.2 mi SW 12.7 mph - N/A   Mostly Cloudy
8:00 AM 44.6 °F 40.2 °F 42.8 °F 93% 29.68 in 6.2 mi SSW 8.1 mph - N/A   Mostly Cloudy
8:30 AM 44.6 °F 39.2 °F 42.8 °F 93% 29.71 in 6.2 mi SW 10.4 mph - N/A   Mostly Cloudy
9:00 AM 46.4 °F 40.7 °F 42.8 °F 87% 29.71 in 6.2 mi SW 12.7 mph - N/A   Mostly Cloudy
9:30 AM 46.4 °F 39.8 °F 42.8 °F 87% 29.71 in 6.2 mi WSW 16.1 mph - N/A   Mostly Cloudy
10:00 AM 48.2 °F - 42.8 °F 82% 29.71 in 6.2 mi WSW 16.1 mph - N/A   Scattered Clouds
10:30 AM 50.0 °F - 41.0 °F 71% 29.71 in 6.2 mi WSW 12.7 mph - N/A   Scattered Clouds
11:00 AM 50.0 °F - 42.8 °F 76% 29.71 in 6.2 mi WSW 13.8 mph 31.1 mph N/A   Partly Cloudy
11:30 AM 51.8 °F - 41.0 °F 67% 29.71 in 6.2 mi WSW 16.1 mph - N/A   Partly Cloudy
12:00 PM 51.8 °F - 41.0 °F 67% 29.71 in 6.2 mi SW 16.1 mph - N/A   Scattered Clouds
12:30 PM 51.8 °F - 42.8 °F 71% 29.68 in 6.2 mi SW 12.7 mph - N/A   Scattered Clouds
1:00 PM 53 °F - 41 °F 53% 29.68 in 19 mi SW 17.3 mph - -   Mostly Cloudy
1:00 PM 53.6 °F - 41.0 °F 62% 29.68 in 6.2 mi SW 16.1 mph - N/A   Mostly Cloudy
1:30 PM 53.6 °F - 41.0 °F 62% 29.65 in 6.2 mi SW 15.0 mph - N/A   Scattered Clouds
2:00 PM 55.4 °F - 41.0 °F 58% 29.65 in 6.2 mi SW 16.1 mph - N/A   Scattered Clouds
2:30 PM 55.4 °F - 39.2 °F 54% 29.62 in 6.2 mi WSW 11.5 mph - N/A   Partly Cloudy
3:00 PM 55.4 °F - 39.2 °F 54% 29.59 in 6.2 mi SW 11.5 mph 28.8 mph N/A   Scattered Clouds
4:00 PM 51.8 °F - 42.8 °F 71% 29.56 in 6.2 mi SW 17.3 mph 28.8 mph N/A   Light Drizzle
4:30 PM 50.0 °F - 42.8 °F 76% 29.56 in 6.2 mi SW 18.4 mph - N/A Rain Light Rain
5:00 PM 48.2 °F - 41.0 °F 76% 29.56 in 6.2 mi SW 12.7 mph - N/A   Light Drizzle
5:20 PM 48.2 °F - 41.0 °F 76% 29.56 in 5.6 mi WSW 11.5 mph 27.6 mph N/A Rain Rain
5:30 PM 48.2 °F - 42.8 °F 82% 29.56 in 5.6 mi WSW 10.4 mph 21.9 mph N/A Rain Light Rain
5:46 PM 48.2 °F - 44.6 °F 87% 29.53 in 4.3 mi SW 6.9 mph - N/A Rain Rain
6:00 PM 46.4 °F 44.3 °F 42.8 °F 87% 29.53 in 5.6 mi SW 4.6 mph - N/A Rain Light Rain
6:30 PM 46.4 °F 41.9 °F 41.0 °F 81% 29.53 in 6.2 mi SW 9.2 mph - N/A   Light Drizzle
6:51 PM 46.4 °F 41.1 °F 42.8 °F 87% 29.53 in 3.7 mi SW 11.5 mph - N/A Rain Rain
7:00 PM 46 °F - 41 °F 77% 29.56 in 3 mi SW 9.2 mph - - Rain Rain
7:00 PM 46.4 °F 41.9 °F 42.8 °F 87% 29.53 in 3.7 mi SW 9.2 mph - N/A Rain Rain
7:20 PM 46.4 °F 44.3 °F 44.6 °F 93% 29.53 in 6.2 mi SW 4.6 mph - N/A Rain Light Rain
7:30 PM 46.4 °F 43.5 °F 44.6 °F 93% 29.53 in 6.2 mi WSW 5.8 mph - N/A Rain Light Rain
8:00 PM 46.4 °F 43.5 °F 44.6 °F 93% 29.50 in 6.2 mi SW 5.8 mph - N/A   Scattered Clouds
8:30 PM 46.4 °F 41.5 °F 42.8 °F 87% 29.53 in 6.2 mi WSW 10.4 mph - N/A   Scattered Clouds
9:00 PM 46.4 °F 40.7 °F 42.8 °F 87% 29.53 in 6.2 mi WSW 12.7 mph - N/A   Mostly Cloudy
9:30 PM 44.6 °F 38.1 °F 42.8 °F 93% 29.53 in 6.2 mi WSW 13.8 mph - N/A   Mostly Cloudy
10:00 PM 44.6 °F 38.4 °F 39.2 °F 81% 29.53 in 6.2 mi WSW 12.7 mph - N/A   Mostly Cloudy
10:30 PM 44.6 °F 38.4 °F 39.2 °F 81% 29.53 in 6.2 mi WSW 12.7 mph - N/A   Mostly Cloudy
11:00 PM 44.6 °F 39.2 °F 41.0 °F 87% 29.53 in 6.2 mi WSW 10.4 mph - N/A   Partly Cloudy
11:30 PM 42.8 °F 36.6 °F 41.0 °F 93% 29.53 in 6.2 mi WSW 11.5 mph - N/A   Partly Cloudy